Regional Weather Roundup
Issued by NWS San Diego, CA

Home | Current Version | Previous Version | Text Only | Print | Product List | Glossary On
Versions: 1 2 3 4 5 6 7 8 9 10 11 12 13 14 15 16 17 18 19 20 21 22 23 24 25 26 27 28 29 30 31 32 33 34 35 36 37 38 39 40 41 42 43 44 45 46 47 48 49 50
000
ASUS46 KSGX 131711
RWRSGX

SAN DIEGO HOURLY WEATHER ROUNDUP
NATIONAL WEATHER SERVICE SAN DIEGO CA
900 AM PST SAT FEB 13 2016

NOTE: "FAIR" INDICATES FEW OR NO CLOUDS BELOW 12,000 FEET WITH NO
SIGNIFICANT WEATHER AND/OR OBSTRUCTIONS TO VISIBILITY.

CAZ042-043-060-061-PZZ750-775-131800-

GREATER SAN DIEGO AREA

CITY           SKY/WX    TMP DP  RH WIND       PRES   REMARKS
LINDBERGH FLD  MOSUNNY   58  49  72 CALM      30.13S HAZE
POINT LOMA       N/A     56  53  90 N3          N/A
NATIONAL CITY    N/A     57  51  79 CALM      30.12F
CHULA VISTA      N/A     59  50  72 CALM      30.04F
IMPERIAL BEACH MOSUNNY   60  53  77 NE5       30.11F HAZE
BROWN FIELD    SUNNY     59  43  55 E6        30.11F
MIRAMAR MCAS   MOSUNNY   65  43  44 CALM      30.11S
MONTGOMERY FLD MOSUNNY   60  41  49 CALM      30.12S

$$

NORTH SAN DIEGO COUNTY

CITY           SKY/WX    TMP DP  RH WIND       PRES   REMARKS
CAMP PENDLETON PTSUNNY   52  41  66 CALM      30.12R
OCEANSIDE AP   PTSUNNY   54  42  64 CALM      30.12R
OCEANSIDE HBR    N/A     53  52  98 CALM      30.14S
VISTA            N/A     57  43  59 CALM      30.11R
CARLSBAD       CLOUDY    53  52  96 CALM      30.11R FOG
DEL MAR          N/A     55  53  94 CALM      30.15R
FALLBROOK        N/A     63  42  46 CALM      30.11S
ESCONDIDO        N/A     62  41  45 CALM      30.12R
SAN MARCOS       N/A     59  41  51 CALM      30.10R
POWAY            N/A     56  44  64 CALM      30.13S

$$

EAST SAN DIEGO COUNTY

CITY           SKY/WX    TMP DP  RH WIND       PRES   REMARKS
RAMONA         MOSUNNY   61  39  44 CALM      30.13R
SANTEE LAKES     N/A     58  42  55 CALM      30.11S
LA MESA          N/A     61  38  43 CALM      30.04S
JAMUL            N/A     63  39  41 NW3       30.11S
DESCANSO N       N/A     67  36  31 CALM      29.98R
MT. LAGUNA OBS   N/A     61  15  16 CALM      29.81S
CAMPO            N/A     63  30  28 CALM      30.12S

$$

ORANGE COUNTY AND THE LOS ANGELES BASIN

CITY           SKY/WX    TMP DP  RH WIND       PRES   REMARKS
JOHN WAYNE AP  FOG       53  53 100 CALM      30.11R VSB 3/4
LAGUNA BEACH     N/A     51  49  92 CALM      30.07S
LAKE FOREST FR   N/A     67  32  27 CALM      29.98S
HUNTINGTON BCH   N/A     55  54  96 CALM      30.13S
LOS ALAMITOS   PTSUNNY   54  52  94 S3        30.10S FOG
FULLERTON      SUNNY     60  43  53 CALM      30.10S HAZE
LONG BEACH     FOG       53  53 100 SE3       30.11R VSB 1/2
L.A. AP        MOSUNNY   58  56  93 CALM      30.11R
L.A. DOWNTOWN  SUNNY     61  50  67 CALM      30.10S

$$

THE INLAND EMPIRE

CITY           SKY/WX    TMP DP  RH WIND       PRES   REMARKS
CORONA         SUNNY     58  44  60 CALM      30.12F
CHINO          MOSUNNY   59  40  49 CALM      30.13S
ONTARIO        MOSUNNY   62  33  33 CALM      30.11S
SAN BERNARDINO SUNNY    N/A N/A N/A CALM      30.12S
RIVERSIDE AP   SUNNY     61  32  33 NE5       30.11F
MORENO VALLEY    N/A     69  38  32 CALM      28.25S
MARCH ARB      SUNNY     58  34  40 S5        30.12S
HORSETHIEF CYN   N/A     62  36  38 S3        30.13F
PERRIS           N/A     58  40  50 CALM      30.18F
HEMET EAST       N/A     67  24  19 CALM      30.01R
FRENCH VALLEY  FAIR      59  34  38 CALM      30.14S
TEMECULA         N/A     50  42  71 CALM      30.12S

$$

SAN BERNARDINO AND RIVERSIDE COUNTY MOUNTAINS

CITY           SKY/WX    TMP DP  RH WIND       PRES   REMARKS
BIG BEAR AP    SUNNY     37  25  60 CALM      30.34S
PINE COVE        N/A     57  11  16 CALM      30.09S

$$

SOUTHERN DESERT INCLUDING THE COACHELLA VALLEY

CITY           SKY/WX    TMP DP  RH WIND       PRES   REMARKS
PALM SPRINGS   SUNNY     71  28  20 NW5       30.08S
THOUSAND PALMS   N/A     65  29  25 NW1       30.05R
PALM DESERT      N/A     66  37  33 CALM        N/A
THERMAL        SUNNY     67  31  26 NW3       30.05R
BLYTHE         SUNNY     60  24  25 CALM      30.10R
IMPERIAL AP    SUNNY     64  30  27 CALM      30.06R
EL CENTRO NAS  MOSUNNY   65  22  19 CALM      30.09R
YUMA AZ        SUNNY     68  28  22 N6        30.07R
MEXICALI       SUNNY     64  21  19 NW3       30.08R

$$

UPPER DESERT

CITY           SKY/WX    TMP DP  RH WIND       PRES   REMARKS
VICTORVILLE AP SUNNY     55  25  30 CALM      30.20S
HESPERIA         N/A     58  29  32 CALM      30.30F
APPLE VALLEY     N/A     54  26  33 CALM      30.20F
PALMDALE       MOSUNNY   54  31  41 NW5       30.22R
LANCASTER      MOSUNNY   48  32  53 CALM      30.22R
EDWARDS AFB    PTSUNNY   42  27  54 SE1       30.20S
DAGGETT        SUNNY     56  25  30 W12       30.19S
29 PALMS N     SUNNY     54  20  26 CALM      30.23F
NEEDLES        SUNNY     66  27  23 N6        30.14S

$$

REGIONAL REPORTS

CITY           SKY/WX    TMP DP  RH WIND       PRES   REMARKS
SANTA BARBARA  SUNNY     57  52  83 CALM      30.11S
SANDBERG       SUNNY     59  28  30 N21       30.26R
LAS VEGAS NV   MOSUNNY   59  23  25 SE5       30.16S
PHOENIX AZ     MOSUNNY   66  31  27 CALM      30.08R
TIJUANA        MOSUNNY   57  43  58 E3        30.14S
ENSENADA NW      N/A     62  32  32 CALM      30.09S

$$

OFFSHORE ISLANDS

CITY           SKY/WX    TMP DP  RH WIND       PRES   REMARKS
CATALINA ARPT  PTSUNNY   68  30  24 CALM      30.14S
SAN NICOLAS IS CLOUDY   N/A N/A N/A NW8       30.11R

$$

MARINE AND OFFSHORE BUOY REPORTS

STATION/POSITION SKY/WX   TEMP    WIND        PRES    SWELL
                          AIR SEA DIR/SP/G            HT/PER/DIR
                          (F)     (DEG/KT/KT) (MB)    (FT/S/D)
TANNER BANKS               59 60  320/ 10/ 14 1019.3F  13/310/17
S CLEMENTE BASIN           56 61  310/  6/ 10 1019.7R   8/290/17
SAN NICOLAS IS.               59                N/A    10/290/18
SO. S. ROSA ISLA           59 59              1018.7R
W. S. BARBARA CH           56 58   80/  2/  6 1019.3R  13/290/16
M. S. BARBARA CH           53 59  130/  4/  8 1020.3R
S. MONICA BASIN            53 60  220/  2/  4 1020.2R   5/250/17
S PEDRO CHANNEL               60                N/A     7/260/17
DANA POINT                    61                N/A     3/260/17
OCEANSIDE OFFSHR              61                N/A     3/250/17
TORREY PINES OTR              61                N/A     5/280/17
LA JOLLA 1                 54 61  250/  1/  2 1019.9R
SAN DIEGO BAY                 61              1020.5R
POINT LOMA SOUTH              60                N/A     7/270/17

$$




USA.gov is the U.S. government's official web portal to all federal, state and local government web resources and services.